This is the latest recevied weather packets stored in our database for station/object KE5YIM-13. If no packets are shown the sender has not sent any weather packets the latest 10 day(s).
| Time | Temp. | Humidity | Pressure | Rain* | Wind** | Luminosity | Snow |
|---|---|---|---|---|---|---|---|
| 1777753979 | 14.44° C | 57% | 1011 hPa | 0 mm | - | 165 W/m² | - |
| 1777753678 | 13.89° C | 56% | 1010.9 hPa | 0 mm | - | 147 W/m² | - |
| 1777753376 | 14.44° C | 61% | 1011.2 hPa | 0 mm | - | 179 W/m² | - |
| 1777753074 | 14.44° C | 56% | 1011.5 hPa | 0 mm | - | 203 W/m² | - |
| 1777752775 | 14.44° C | 57% | 1011.5 hPa | 0 mm | - | 225 W/m² | - |
| 1777752471 | 13.89° C | 60% | 1011.6 hPa | 0 mm | - | 242 W/m² | - |
| 1777752167 | 13.89° C | 61% | 1011.4 hPa | 0 mm | - | 217 W/m² | - |
| 1777751866 | 13.89° C | 59% | 1011.5 hPa | 0 mm | - | 180 W/m² | - |
| 1777751562 | 13.89° C | 62% | 1011.5 hPa | 0 mm | - | 262 W/m² | - |
| 1777751258 | 13.89° C | 62% | 1011.6 hPa | 0 mm | - | 352 W/m² | - |
| 1777750956 | 13.89° C | 60% | 1011.6 hPa | 0 mm | - | 291 W/m² | - |
| 1777750651 | 14.44° C | 60% | 1011.7 hPa | 0 mm | - | 351 W/m² | - |
| 1777750349 | 13.89° C | 61% | 1012 hPa | 0 mm | - | 652 W/m² | - |
| 1777750049 | 13.33° C | 64% | 1011.8 hPa | 0 mm | - | 330 W/m² | - |
| 1777749747 | 13.33° C | 65% | 1012 hPa | 0 mm | - | 315 W/m² | - |
| 1777749443 | 13.33° C | 64% | 1012.1 hPa | 0 mm | - | 310 W/m² | - |
| 1777749141 | 13.33° C | 64% | 1012.1 hPa | 0 mm | - | 356 W/m² | - |
| 1777748838 | 13.33° C | 64% | 1012 hPa | 0 mm | - | 315 W/m² | - |
| 1777748536 | 13.33° C | 65% | 1012.2 hPa | 0 mm | - | 444 W/m² | - |
| 1777748235 | 13.33° C | 66% | 1012.1 hPa | 0 mm | - | 672 W/m² | - |
| 1777747932 | 13.33° C | 66% | 1012.3 hPa | 0 mm | - | 432 W/m² | - |
| 1777747628 | 13.33° C | 66% | 1012.5 hPa | 0 mm | - | 463 W/m² | - |
| 1777747324 | 13.33° C | 67% | 1012.4 hPa | 0 mm | - | 466 W/m² | - |
| 1777747021 | 13.89° C | 65% | 1012.4 hPa | 0 mm | - | 361 W/m² | - |
| 1777746717 | 13.89° C | 69% | 1012.4 hPa | 0 mm | - | 589 W/m² | - |
* Rain latest hour (hover to see other rain measurements)
** Current wind speed in m/s (hover to see current wind gust speed)